Home > Time Zones > World Clock > Weather > Peru > Ica > Past weeks

Flag for Peru Weather past 2 weeks in Ica, Ica, Peru

Now
70 °F

Clear.


Feels Like: 70 °F
Forecast: 63 / 87 °F
Wind: 10 mph from Northwest

Location: Pisco Airport

Current Time: Dec 22, 2014 at 3:00:12 PM

Latest Report: Dec 22, 2014 at 2:00 PM


Visibility: 5 mi

Pressure: 29.89 "Hg

Humidity: 78%

Dew point: 63 °F

Location of IcaLocation

Historic Weather in Ica — Graph

°F

Ica temperature yesterday

Maximum temperature yesterday: 73 °F (at 4:00 PM)
Minimum temperature yesterday: 59 °F (at 6:00 AM)
Average temperature yesterday: 67 °F

Past Weeks' High & Low Weather Summary

 TemperatureHumidityPressure
High77 °F (Dec 10, 2:00 PM)94% (Dec 12, 6:00 AM)30.04 "Hg (Dec 12, 6:00 AM)
Low59 °F (Dec 21, 6:00 AM)57% (Dec 10, 3:00 PM)29.80 "Hg (Dec 7, 5:00 PM)
Average69 °F80%29.92 "Hg
* Reported Dec 7 2:00 PM — Dec 22 2:00 PM, Ica, Weather by CustomWeather, © 2014

Note: Actual official high and low records may vary slightly from our data, if they occured in-between our weather recording intervals... More about our weather records

Advertising

Ica weather history for previous 24 hours

 ConditionsComfort  
Time TempWeatherWind HumidityBarometerVisibility
2:00 PM
Dec 22
70 °FClear.10 mph78%29.89 "Hg5 mi
1:00 PM70 °FClear.10 mph78%29.92 "Hg5 mi
12:00 PM70 °FClear.10 mph78%29.92 "Hg5 mi
11:00 AM70 °FPartly sunny.10 mph78%29.92 "HgN/A
10:00 AM68 °FPartly sunny.10 mph83%29.95 "HgN/A
9:00 AM70 °FScattered clouds.9 mph78%29.95 "HgN/A
8:00 AM68 °FFog.2 mph78%29.95 "Hg2 mi
7:00 AM63 °FFog.3 mph88%29.95 "Hg2 mi
6:00 AM63 °FClear.6 mph88%29.92 "Hg4 mi
5:00 AM61 °FPassing clouds.No wind88%29.89 "Hg5 mi
4:00 AM63 °FClear.No wind88%29.89 "Hg5 mi
3:00 AM63 °FPassing clouds.3 mph88%29.86 "HgN/A
2:00 AM64 °FPassing clouds.3 mph83%29.86 "HgN/A
1:00 AM66 °FPassing clouds.7 mph78%29.89 "HgN/A
12:00 AM64 °FPassing clouds.8 mph88%29.92 "HgN/A
11:00 PM
Dec 21
66 °FClear.7 mph83%29.92 "Hg10 mi
10:00 PM66 °FClear.10 mph88%29.92 "Hg10 mi
9:00 PM66 °FPassing clouds.14 mph88%29.92 "HgN/A
8:00 PM68 °FPassing clouds.12 mph83%29.92 "HgN/A
7:00 PM68 °FPassing clouds.18 mph83%29.89 "HgN/A
6:00 PM70 °FPassing clouds.21 mph73%29.89 "HgN/A
5:00 PM72 °FPassing clouds.18 mph69%29.86 "HgN/A
4:00 PM73 °FPassing clouds.14 mph69%29.89 "HgN/A
3:00 PM72 °FPassing clouds.7 mph73%29.89 "HgN/A
Weather by CustomWeather, © 2014

See weather overviewHow to use our weather pages